TimeAKST,TemperatureF,Dew PointF,Humidity,Sea Level PressureIn,VisibilityMPH,Wind Direction,Wind SpeedMPH,Gust SpeedMPH,PrecipitationIn,Events,Conditions,WindDirDegrees,DateUTC
12:56 AM,41.0,32.0,70,28.83,10.0,SW,25.3,34.5,0.00,Rain,Light Rain,220,2012-12-09 09:56:00
1:56 AM,39.0,30.9,73,28.90,10.0,SW,18.4,27.6,0.00,Rain,Light Rain,220,2012-12-09 10:56:00
2:15 AM,37.4,30.2,75,28.91,7.0,SSW,21.9,28.8,0.00,Rain,Light Rain,200,2012-12-09 11:15:00
2:56 AM,37.9,30.9,76,28.97,5.0,SW,15.0,29.9,0.01,Rain,Light Rain,230,2012-12-09 11:56:00
3:56 AM,37.9,28.0,68,29.02,10.0,SW,17.3,27.6,0.00,Rain,Light Rain,220,2012-12-09 12:56:00
4:10 AM,37.4,28.4,70,29.02,10.0,SW,17.3,27.6,0.00,Rain,Light Rain,220,2012-12-09 13:10:00
4:56 AM,36.0,30.9,82,29.07,8.0,SSW,19.6,36.8,0.00,Rain,Light Rain,200,2012-12-09 13:56:00
5:29 AM,35.6,28.4,75,29.08,6.0,SSW,25.3,34.5,0.00,Snow,Light Snow,210,2012-12-09 14:29:00
5:56 AM,36.0,28.0,73,29.11,9.0,SW,21.9,34.5,0.00,,Overcast,230,2012-12-09 14:56:00
6:08 AM,35.6,30.2,81,29.11,2.5,West,15.0,34.5,0.00,Snow,Light Snow,260,2012-12-09 15:08:00
6:19 AM,35.6,28.4,75,29.11,5.0,SW,21.9,33.4,0.00,Snow,Light Snow,230,2012-12-09 15:19:00
6:56 AM,35.1,28.0,76,29.17,4.0,SW,16.1,33.4,0.00,Rain-Snow,Light Snow,230,2012-12-09 15:56:00
7:03 AM,33.8,28.4,81,29.16,1.8,SW,13.8,21.9,0.00,Rain-Snow,Light Snow,230,2012-12-09 16:03:00
7:14 AM,33.8,28.4,81,29.17,4.0,SSW,19.6,26.5,0.00,Rain-Snow,Light Snow,210,2012-12-09 16:14:00
7:38 AM,35.6,28.4,75,29.18,8.0,SSW,18.4,31.1,0.00,Snow,Light Snow,210,2012-12-09 16:38:00
7:56 AM,35.1,28.0,76,29.21,8.0,SW,19.6,36.8,0.00,Snow,Light Snow,220,2012-12-09 16:56:00
8:31 AM,35.6,28.4,75,29.23,2.5,SW,11.5,31.1,0.00,Snow,Light Snow,220,2012-12-09 17:31:00
8:51 AM,35.6,30.2,81,29.25,3.0,SSW,12.7,24.2,0.00,Snow,Light Snow,210,2012-12-09 17:51:00
8:56 AM,35.1,30.0,82,29.27,3.0,WSW,17.3,25.3,0.00,Snow,Light Snow,240,2012-12-09 17:56:00
9:28 AM,33.8,28.4,81,29.28,2.0,West,11.5,33.4,0.00,Snow,Light Snow,260,2012-12-09 18:28:00
9:56 AM,34.0,30.0,85,29.32,2.0,WSW,13.8,20.7,0.00,Snow,Light Snow,250,2012-12-09 18:56:00
10:08 AM,33.8,30.2,87,29.31,1.5,WSW,15.0,21.9,0.01,Snow,Light Snow,250,2012-12-09 19:08:00
10:20 AM,35.6,28.4,75,29.33,2.0,WSW,12.7,29.9,0.01,Snow,Light Snow,240,2012-12-09 19:20:00
10:30 AM,35.6,28.4,75,29.33,3.0,WSW,15.0,23.0,0.01,Snow,Light Snow,240,2012-12-09 19:30:00
10:49 AM,35.6,28.4,75,29.35,2.0,SW,10.4,21.9,0.01,Snow,Light Snow,220,2012-12-09 19:49:00
10:56 AM,35.1,28.0,76,29.37,5.0,WSW,16.1,23.0,0.01,Snow,Light Snow,240,2012-12-09 19:56:00
11:31 AM,35.6,28.4,75,29.38,4.0,WSW,15.0,23.0,0.00,,Overcast,250,2012-12-09 20:31:00
11:36 AM,35.6,28.4,75,29.38,2.0,WSW,18.4,23.0,0.00,Snow,Light Snow,240,2012-12-09 20:36:00
11:42 AM,33.8,30.2,87,29.39,1.5,WSW,15.0,23.0,0.00,Snow,Light Snow,240,2012-12-09 20:42:00
11:50 AM,33.8,30.2,87,29.39,1.5,SW,12.7,-,0.00,Snow,Light Snow,230,2012-12-09 20:50:00
11:54 AM,33.8,30.2,87,29.39,1.5,SW,12.7,20.7,0.00,Snow,Light Snow,230,2012-12-09 20:54:00
11:56 AM,34.0,30.0,85,29.42,1.5,SW,11.5,20.7,0.00,Snow,Light Snow,220,2012-12-09 20:56:00
12:02 PM,33.8,30.2,87,29.40,3.0,SW,13.8,21.9,0.00,Snow,Light Snow,230,2012-12-09 21:02:00
12:26 PM,35.6,28.4,75,29.42,3.0,SW,18.4,27.6,0.00,Snow,Light Snow,220,2012-12-09 21:26:00
12:47 PM,35.6,28.4,75,29.43,9.0,SW,16.1,26.5,0.00,Snow,Light Snow,230,2012-12-09 21:47:00
12:56 PM,35.1,27.0,72,29.45,9.0,SSW,16.1,25.3,0.00,Snow,Light Snow,210,2012-12-09 21:56:00
1:09 PM,35.6,28.4,75,29.44,9.0,SSW,11.5,25.3,0.00,,Overcast,200,2012-12-09 22:09:00
1:12 PM,35.6,28.4,75,29.45,8.0,SSW,11.5,20.7,0.00,Snow,Light Snow,210,2012-12-09 22:12:00
1:26 PM,35.6,28.4,75,29.45,10.0,WSW,8.1,-,0.00,,Mostly Cloudy,250,2012-12-09 22:26:00
1:56 PM,36.0,27.0,70,29.49,10.0,WSW,15.0,21.9,0.00,,Overcast,250,2012-12-09 22:56:00
2:08 PM,35.6,28.4,75,29.48,1.5,SW,9.2,21.9,0.00,Snow,Snow,230,2012-12-09 23:08:00
2:13 PM,33.8,30.2,87,29.49,1.5,WSW,10.4,-,0.00,Snow,Snow,240,2012-12-09 23:13:00
2:25 PM,35.6,28.4,75,29.48,6.0,SSW,8.1,18.4,0.00,Snow,Light Snow,200,2012-12-09 23:25:00
2:49 PM,35.6,26.6,70,29.50,9.0,SW,16.1,25.3,0.00,Snow,Light Snow,220,2012-12-09 23:49:00
2:56 PM,36.0,26.1,67,29.51,9.0,SSW,16.1,23.0,0.00,Snow,Light Snow,200,2012-12-09 23:56:00
3:56 PM,36.0,26.1,67,29.53,10.0,SSW,18.4,29.9,0.00,Snow,Light Snow,210,2012-12-10 00:56:00
4:08 PM,35.6,26.6,70,29.52,2.0,WSW,15.0,25.3,0.00,Snow,Light Snow,250,2012-12-10 01:08:00
4:18 PM,35.6,26.6,70,29.53,7.0,WSW,11.5,-,0.00,Snow,Light Snow,250,2012-12-10 01:18:00
4:56 PM,36.0,27.0,70,29.57,9.0,WSW,12.7,18.4,0.00,Snow,Light Snow,250,2012-12-10 01:56:00
5:39 PM,35.6,28.4,75,29.57,7.0,West,8.1,-,0.00,Snow,Light Snow,270,2012-12-10 02:39:00
5:56 PM,35.1,28.0,76,29.59,10.0,West,8.1,17.3,0.00,Snow,Light Snow,270,2012-12-10 02:56:00
6:12 PM,35.6,28.4,75,29.58,4.0,WNW,6.9,-,0.00,Snow,Light Snow,290,2012-12-10 03:12:00
6:29 PM,35.6,28.4,75,29.59,9.0,West,6.9,-,0.00,Snow,Light Snow,260,2012-12-10 03:29:00
6:56 PM,35.1,28.0,76,29.62,7.0,West,11.5,-,0.00,Snow,Light Snow,270,2012-12-10 03:56:00
7:13 PM,35.6,28.4,75,29.61,9.0,WNW,15.0,-,0.00,,Overcast,290,2012-12-10 04:13:00
7:37 PM,33.8,28.4,81,29.62,5.0,West,12.7,-,0.00,Snow,Light Snow,270,2012-12-10 04:37:00
7:52 PM,35.6,28.4,75,29.63,3.0,West,5.8,18.4,0.00,Snow,Light Snow,260,2012-12-10 04:52:00
7:56 PM,34.0,28.9,82,29.65,3.0,WSW,6.9,-,0.00,Snow,Light Snow,240,2012-12-10 04:56:00
8:13 PM,33.8,30.2,87,29.64,10.0,SSW,3.5,-,0.00,Rain,Light Rain,200,2012-12-10 05:13:00
8:46 PM,35.6,28.4,75,29.65,10.0,Calm,Calm,-,0.00,Rain,Light Rain,0,2012-12-10 05:46:00
8:56 PM,35.1,28.0,76,29.67,10.0,West,3.5,-,0.00,Rain,Light Rain,280,2012-12-10 05:56:00
9:56 PM,35.1,27.0,72,29.69,10.0,SSW,8.1,-,0.00,Rain,Light Rain,210,2012-12-10 06:56:00
10:56 PM,36.0,26.1,67,29.72,10.0,West,13.8,-,0.00,Rain,Light Rain,270,2012-12-10 07:56:00
11:56 PM,36.0,26.1,67,29.75,10.0,West,12.7,-,0.00,Rain,Light Rain,270,2012-12-10 08:56:00